| Temp | 79.8 °F 3.6 |
|---|---|
| Daily Min Temp | 39.1 °F 0.1 |
| Time of Min Temp | 0618 |
| Daily Max Temp | 80.9 °F 4.0 |
| Time of Max Temp | 1452 |
| Wind Dir | SW | 223 ° |
| Wind Spd | 4.9 mph 1.8 |
| Wind Gust | 12.1 mph 3.9 |
| Daily Max Wind | 14.4 mph 1.1 |
| Time of Max Wind | 1451 |
| Max Wind Dir | WSW | 246 ° |
| Leaf Wet | 15.0 mins |
| Daily Leaf Wet | 15.5 Hrs 0.0 |
| Latest Rain | 0.00 In |
| Daily Rain | 0.00 In |
| Yest MinT | 39.0 °F |
| Yest MaxT | 77.4 °F |
| Yest MaxGst | 13.3 mph |
| Yest Leaf Wet | 24.0 Hrs |
| Yest Precip | 0.01 In |
| Month Precip | 0.05 In |
| Season Precip | 0.05 In |
| BatVolt | 13.5 V 0.1 |
| MinBV Day | 12.6 V 0.1 |
| Date & Time | Temp (°F) | WindChill (°F) | RH (%) | Dew Pt (°F) | Wet Bulb (°F) | Wind Dir (°) | Wind Spd (mph) | Wind Gust (mph) | Wind Gst Dir (°) | Leaf Wet (mins) | Latest Rain (In) | Daily Rain (In) | Daily Min Temp (°F) | Daily Max Temp (°F) | Daily Leaf Wet (Hrs) |
|---|---|---|---|---|---|---|---|---|---|---|---|---|---|---|---|
| 9/5/26 - 1600 | 79.7 | - | 27 | 43.2 | 57.5 | SSW | 211 | 4.7 | 13.8 | WSW | 241 | 60.0 | 0.00 | 0.00 | 39.1 | 80.9 | 15.0 |
| 9/5/26 - 1500 | 79.1 | - | 26 | 43.0 | 57.5 | NW | 320 | 3.5 | 14.4 | WSW | 246 | 60.0 | 0.00 | 0.00 | 39.1 | 80.9 | 14.0 |
| 9/5/26 - 1400 | 77.1 | - | 34 | 45.5 | 57.5 | ESE | 107 | 2.4 | 7.1 | SE | 127 | 60.0 | 0.00 | 0.00 | 39.1 | 78.8 | 13.0 |
| 9/5/26 - 1300 | 75.7 | - | 33 | 45.9 | 58.0 | NNE | 21 | 3.2 | 9.3 | SE | 124 | 60.0 | 0.00 | 0.00 | 39.1 | 77.3 | 12.0 |
| 9/5/26 - 1200 | 72.8 | - | 35 | 45.0 | 56.8 | N | 0 | 3.2 | 8.8 | N | 0 | 60.0 | 0.00 | 0.00 | 39.1 | 74.4 | 11.0 |
| 9/5/26 - 1100 | 69.1 | - | 47 | 50.4 | 59.0 | NNE | 33 | 1.9 | 7.7 | NE | 38 | 60.0 | 0.00 | 0.00 | 39.1 | 71.8 | 10.0 |
| 9/5/26 - 1000 | 63.6 | - | 58 | 50.7 | 57.4 | NNE | 20 | 1.4 | 6.5 | NNE | 26 | 60.0 | 0.00 | 0.00 | 39.1 | 65.8 | 9.0 |
| 9/5/26 - 0900 | 56.2 | - | 67 | 50.8 | 56.0 | N | 359 | 0.2 | 4.3 | ENE | 60 | 60.0 | 0.00 | 0.00 | 39.1 | 61.7 | 8.0 |
| 9/5/26 - 0800 | 43.5 | - | 97 | 48.4 | 49.5 | NW | 306 | 0.0 | 2.1 | NW | 306 | 60.0 | 0.00 | 0.00 | 39.1 | 49.2 | 7.0 |
| 9/5/26 - 0700 | 39.4 | - | 96 | 39.1 | 39.8 | S | 171 | 0.1 | 2.1 | SSW | 192 | 60.0 | 0.00 | 0.00 | 39.1 | 47.0 | 6.0 |
| 9/5/26 - 0600 | 41.0 | - | 92 | 37.7 | 39.0 | ESE | 107 | 0.1 | 2.1 | ESE | 110 | 60.0 | 0.00 | 0.00 | 39.8 | 47.0 | 5.0 |
| 9/5/26 - 0500 | 41.2 | - | 96 | 40.7 | 41.6 | ESE | 120 | 0.3 | 3.2 | SE | 125 | 60.0 | 0.00 | 0.00 | 40.4 | 47.0 | 4.0 |
| 9/5/26 - 0400 | 42.3 | - | 91 | 39.0 | 40.5 | N | 0 | 0.0 | 0.0 | ESE | 118 | 60.0 | 0.00 | 0.00 | 41.4 | 47.0 | 3.0 |
| 9/5/26 - 0300 | 44.0 | - | 93 | 41.4 | 42.7 | ESE | 118 | 0.3 | 2.6 | ESE | 120 | 60.0 | 0.00 | 0.00 | 43.4 | 47.0 | 2.0 |
| 9/5/26 - 0200 | 45.5 | - | 92 | 42.3 | 43.8 | ESE | 116 | 0.6 | 2.6 | E | 101 | 60.0 | 0.00 | 0.00 | 44.4 | 47.0 | 1.0 |
| 9/5/26 - 0100 | 47.0 | 46.2 | 92 | 44.8 | 46.4 | ESE | 115 | 0.7 | 5.4 | E | 91 | 60.0 | 0.00 | 0.01 | 39.0 | 77.4 | 24.0 |
| 9/5/26 - 0000 | 49.2 | - | 88 | 44.4 | 46.6 | ESE | 121 | 0.9 | 3.2 | ESE | 118 | 60.0 | 0.00 | 0.01 | 39.0 | 77.4 | 23.0 |
| 9/4/26 - 2300 | 51.2 | - | 85 | 45.9 | 48.4 | SE | 136 | 1.4 | 3.2 | SE | 133 | 60.0 | 0.00 | 0.01 | 39.0 | 77.4 | 22.0 |
| 9/4/26 - 2200 | 53.2 | - | 84 | 47.3 | 50.2 | S | 175 | 0.9 | 3.2 | S | 169 | 60.0 | 0.00 | 0.01 | 39.0 | 77.4 | 21.0 |
| 9/4/26 - 2100 | 58.6 | - | 71 | 46.2 | 50.9 | SSW | 206 | 1.0 | 7.1 | SW | 223 | 60.0 | 0.00 | 0.01 | 39.0 | 77.4 | 20.0 |
| 9/4/26 - 2000 | 65.4 | - | 63 | 48.3 | 54.4 | WNW | 295 | 2.8 | 9.3 | WNW | 293 | 60.0 | 0.00 | 0.01 | 39.0 | 77.4 | 19.0 |
| 9/4/26 - 1900 | 72.1 | - | 46 | 47.6 | 56.7 | W | 275 | 5.8 | 12.1 | W | 266 | 60.0 | 0.00 | 0.01 | 39.0 | 77.4 | 18.0 |
| 9/4/26 - 1800 | 75.6 | - | 32 | 42.2 | 55.5 | SW | 233 | 4.1 | 11.0 | S | 184 | 60.0 | 0.00 | 0.01 | 39.0 | 77.4 | 17.0 |
| 9/4/26 - 1700 | 76.4 | - | 28 | 41.0 | 55.8 | SW | 224 | 3.1 | 9.3 | SSW | 199 | 60.0 | 0.00 | 0.01 | 39.0 | 77.4 | 16.0 |
| 9/4/26 - 1600 | 75.9 | - | 28 | 40.4 | 55.2 | WSW | 243 | 4.9 | 13.3 | WNW | 302 | 60.0 | 0.00 | 0.01 | 39.0 | 76.8 | 15.0 |
| 9/4/26 - 1500 | 74.7 | - | 28 | 40.7 | 55.3 | SW | 228 | 4.2 | 12.1 | W | 270 | 60.0 | 0.00 | 0.01 | 39.0 | 76.4 | 14.0 |
| 9/4/26 - 1400 | 72.5 | - | 30 | 40.1 | 54.3 | SSW | 195 | 3.7 | 9.9 | S | 184 | 60.0 | 0.00 | 0.01 | 39.0 | 73.6 | 13.0 |
| 9/4/26 - 1300 | 70.8 | - | 40 | 46.4 | 56.8 | NNW | 340 | 3.9 | 11.0 | S | 188 | 60.0 | 0.00 | 0.01 | 39.0 | 72.5 | 12.0 |
| 9/4/26 - 1200 | 67.9 | - | 39 | 43.1 | 54.5 | NNE | 15 | 3.4 | 8.8 | NNE | 19 | 60.0 | 0.00 | 0.01 | 39.0 | 69.4 | 11.0 |
| 9/4/26 - 1100 | 63.8 | - | 50 | 46.5 | 55.1 | NNE | 19 | 2.2 | 8.8 | N | 0 | 60.0 | 0.00 | 0.01 | 39.0 | 65.9 | 10.0 |
| 9/4/26 - 1000 | 59.3 | - | 68 | 50.8 | 55.9 | SSE | 147 | 0.7 | 4.9 | SSW | 200 | 60.0 | 0.00 | 0.01 | 39.0 | 61.2 | 9.0 |
| 9/4/26 - 0900 | 52.4 | - | 82 | 52.2 | 55.4 | W | 278 | 0.1 | 3.8 | WSW | 251 | 60.0 | 0.00 | 0.01 | 39.0 | 57.5 | 8.0 |
| 9/4/26 - 0800 | 41.3 | - | 100 | 47.4 | 48.1 | ESE | 122 | 0.0 | 2.6 | SE | 124 | 60.0 | 0.00 | 0.01 | 39.0 | 47.5 | 7.0 |
| 9/4/26 - 0700 | 40.4 | - | 97 | 38.5 | 39.1 | N | 0 | 0.0 | 0.0 | ESE | 119 | 60.0 | 0.00 | 0.01 | 39.2 | 47.3 | 6.0 |
| 9/4/26 - 0600 | 42.8 | - | 98 | 40.7 | 41.3 | SE | 142 | 0.1 | 2.6 | ESE | 121 | 60.0 | 0.01 | 0.01 | 41.3 | 47.3 | 5.0 |
| 9/4/26 - 0500 | 43.3 | - | 99 | 43.2 | 43.7 | ESE | 106 | 0.4 | 2.6 | ESE | 106 | 60.0 | 0.00 | 0.00 | 42.8 | 47.3 | 4.0 |
| 9/4/26 - 0400 | 44.2 | - | 98 | 43.1 | 43.7 | SE | 136 | 0.3 | 2.6 | SE | 133 | 60.0 | 0.00 | 0.00 | 43.2 | 47.3 | 3.0 |
| 9/4/26 - 0300 | 45.1 | - | 98 | 44.6 | 45.4 | ESE | 121 | 0.3 | 2.6 | ESE | 113 | 60.0 | 0.00 | 0.00 | 44.6 | 47.3 | 2.0 |
| 9/4/26 - 0200 | 46.1 | - | 97 | 45.1 | 46.0 | ESE | 119 | 0.4 | 2.6 | ESE | 117 | 60.0 | 0.00 | 0.00 | 45.3 | 47.3 | 1.0 |
| 9/4/26 - 0100 | 48.5 | - | 96 | 46.2 | 47.3 | N | 0 | 0.0 | 0.0 | S | 171 | 60.0 | 0.00 | 0.02 | 47.2 | 70.8 | 24.0 |
| 9/4/26 - 0000 | 50.4 | - | 96 | 48.4 | 49.6 | S | 174 | 0.4 | 2.6 | SE | 142 | 60.0 | 0.00 | 0.02 | 49.2 | 70.8 | 23.0 |
| 9/3/26 - 2300 | 53.3 | - | 93 | 50.2 | 51.8 | ESE | 117 | 0.6 | 3.2 | ESE | 112 | 60.0 | 0.00 | 0.02 | 52.0 | 70.8 | 22.0 |
| 9/3/26 - 2200 | 56.2 | - | 92 | 51.8 | 53.8 | S | 189 | 0.5 | 3.2 | SSW | 192 | 60.0 | 0.00 | 0.02 | 54.2 | 70.8 | 21.0 |
| 9/3/26 - 2100 | 57.1 | - | 95 | 55.8 | 57.7 | SE | 133 | 0.6 | 3.8 | SE | 140 | 60.0 | 0.00 | 0.02 | 56.8 | 70.8 | 20.0 |
| 9/3/26 - 2000 | 57.2 | - | 95 | 55.6 | 57.5 | W | 280 | 1.3 | 8.8 | W | 274 | 60.0 | 0.00 | 0.02 | 56.8 | 70.8 | 19.0 |
| 9/3/26 - 1900 | 60.4 | - | 88 | 55.3 | 58.0 | W | 262 | 3.2 | 9.9 | WNW | 301 | 60.0 | 0.01 | 0.02 | 58.6 | 70.8 | 18.0 |
| 9/3/26 - 1800 | 59.9 | - | 86 | 55.8 | 58.7 | S | 178 | 2.1 | 6.0 | SSE | 166 | 60.0 | 0.00 | 0.01 | 58.6 | 70.8 | 17.0 |
| 9/3/26 - 1700 | 62.3 | - | 85 | 56.0 | 59.0 | SW | 225 | 3.5 | 11.0 | W | 281 | 60.0 | 0.01 | 0.01 | 58.6 | 70.8 | 16.0 |
| 9/3/26 - 1600 | 66.4 | - | 64 | 52.3 | 58.0 | SSW | 211 | 6.7 | 14.9 | SW | 224 | 60.0 | 0.00 | 0.00 | 58.6 | 70.8 | 15.0 |
| Max | 79.7 | - | 100 | 56.0 | 59.0 | - | 6.7 | 14.9 | - | 60.0 | 0.01 | 0.02 | 58.6 | 80.9 | 24.0 |
| Avg | 57.8 | - | 72 | 46.1 | 51.5 | - | 1.8 | 6.2 | - | 60.0 | 0.00 | - | - | - | - |
| Min | 39.4 | - | 26 | 37.7 | 39.0 | - | 0.0 | 0.0 | - | 60.0 | 0.00 | 0.00 | 39.0 | 47.0 | 1.0 |
| Total | - | - | - | - | - | - | - | - | - | - | 0.03 | - | - | - | - |
| Date | Daily Max Temp (°F) | Time of Max Temp | Daily Min Temp (°F) | Time of Min Temp | Daily Rain (In) | Month Precip (In) | Season Precip (In) | Wind Spd (mph) | Daily Max Wind (mph) | Time of Max Wind | Max Wind Dir (°) | Dew Pt (°F) | Daily Leaf Wet (Hrs) | Hrs 70-85F (hrs) | Hrs > 95F (hrs) | Powdery Mildew Stress (pts) | GDDs (DL) | GDDs (Mx/Mn) | Seas GDDs (DL) | Seas GDDs (Smpl) | Hrs <= 32F (hrs) | Hrs <= 28F (hrs) | Chilling <=45F (hrs) | Chill Hrs 32-45F (hrs) | Utah Chilling (Units) | Chill Portions | Degree Hrs (hrs) | Max 1 Min Rain (In) | Max 1 Min Rain Time | Max 15 Min Rain (In) | Max 15 Min Precip Time | Max 60 Min Rain (In) | Max 60 Min Rain Time | MinBV Day (V) |
|---|---|---|---|---|---|---|---|---|---|---|---|---|---|---|---|---|---|---|---|---|---|---|---|---|---|---|---|---|---|---|---|---|---|---|
| 9/4/26 | 77.4 | 1640 | 39.0 | 0709 | 0.01 | 0.05 | 0.05 | 1.9 | 13.3 | 1525 | WNW | 302 | 44.8 | 24.0 | 6.61 | 0.00 | 20 | 10.0 | 8.2 | 2,665 | 2,503 | 0.0 | 0.0 | 5.2 | 5.2 | 0.5 | 0 | 66.2 | 0.01 | 0507 | 0.01 | 0521 | 0.01 | 0606 | 12.5 |
| 9/3/26 | 70.8 | 1406 | 47.2 | 0054 | 0.02 | 0.04 | 0.04 | 3.0 | 14.9 | 1202 | S | 176 | 46.2 | 24.0 | 0.27 | 0.00 | 0 | 10.6 | 9.0 | 2,655 | 2,495 | 0.0 | 0.0 | 0.0 | 0.0 | -7.5 | 0 | 14.8 | 0.01 | 1859 | 0.01 | 1913 | 0.01 | 1958 | 12.6 |
| 9/2/26 | 73.9 | 1440 | 53.7 | 0101 | 0.02 | 0.02 | 0.02 | 3.3 | 15.5 | 1354 | SSW | 204 | 50.6 | 24.0 | 4.69 | 0.00 | 0 | 11.7 | 13.8 | 2,645 | 2,486 | 0.0 | 0.0 | 0.0 | 0.0 | -9.5 | 0 | 38.0 | 0.01 | 0806 | 0.02 | 0818 | 0.02 | 0903 | 12.6 |
| 9/1/26 | 72.2 | 1401 | 44.2 | 0210 | 0.00 | 0.00 | 0.00 | 2.7 | 15.5 | 1512 | WNW | 288 | 50.9 | 24.0 | 0.71 | 0.00 | 10 | 9.8 | 8.2 | 2,633 | 2,472 | 0.0 | 0.0 | 0.9 | 0.9 | -4.0 | 0 | 25.1 | - | - | - | - | - | - | 12.5 |
| 8/31/26 | 84.0 | 1245 | 44.4 | 0649 | 0.00 | 0.00 | 0.00 | 3.4 | 16.6 | 1331 | WSW | 239 | 44.8 | 24.0 | 10.21 | 0.00 | 20 | 14.9 | 14.2 | 2,623 | 2,464 | 0.0 | 0.0 | 0.9 | 0.9 | -5.5 | - | 146.7 | - | - | - | - | - | - | 12.5 |
| 8/30/26 | 92.5 | 1509 | 43.7 | 0639 | 0.00 | 0.00 | 0.00 | 1.9 | 12.7 | 1732 | S | 180 | 45.9 | 24.0 | 2.62 | 0.00 | 0 | 18.3 | 18.1 | 2,608 | 2,450 | 0.0 | 0.0 | 2.8 | 2.8 | -6.5 | - | 216.7 | - | - | - | - | - | - | 12.5 |
| 8/29/26 | 88.2 | 1606 | 39.0 | 0642 | 0.00 | 0.00 | 0.00 | 2.2 | 16.0 | 1405 | W | 276 | 42.8 | 24.0 | 3.49 | 0.00 | 10 | 16.3 | 13.6 | 2,590 | 2,432 | 0.0 | 0.0 | 6.6 | 6.6 | -4.5 | - | 179.1 | - | - | - | - | - | - | 12.5 |
| 8/28/26 | 85.9 | 1505 | 44.3 | 0059 | 0.00 | 0.00 | 0.00 | 2.3 | 12.1 | 1535 | W | 263 | 37.5 | 24.0 | 9.99 | 0.00 | 20 | 17.2 | 15.1 | 2,574 | 2,418 | 0.0 | 0.0 | 0.3 | 0.3 | -10.5 | - | 165.8 | - | - | - | - | - | - | 12.6 |
| 8/27/26 | 96.3 | 1545 | 50.6 | 0707 | 0.00 | 0.00 | 0.00 | 2.7 | 16.0 | 1634 | WNW | 292 | 43.3 | 24.0 | 2.76 | 1.82 | 0 | 23.7 | 23.4 | 2,557 | 2,403 | 0.0 | 0.0 | 0.0 | 0.0 | -15.0 | - | 286.6 | - | - | - | - | - | - | 12.5 |
| 8/26/26 | 97.4 | 1531 | 41.8 | 0641 | 0.00 | 0.00 | 0.00 | 1.8 | 13.3 | 1715 | WSW | 248 | 50.6 | 24.0 | 2.65 | 1.48 | 0 | 20.7 | 19.6 | 2,533 | 2,380 | 0.0 | 0.0 | 2.9 | 2.9 | -8.0 | - | 252.4 | - | - | - | - | - | - | 12.5 |
| 8/25/26 | 94.0 | 1442 | 47.7 | 0638 | 0.00 | 0.00 | 0.00 | 2.5 | 13.3 | 1545 | S | 191 | 43.6 | 24.0 | 3.01 | 0.00 | 0 | 20.6 | 20.9 | 2,512 | 2,360 | 0.0 | 0.0 | 0.0 | 0.0 | -10.5 | - | 250.2 | - | - | - | - | - | - | 12.6 |
| 8/24/26 | 95.5 | 1506 | 47.5 | 0626 | 0.00 | 0.00 | 0.00 | 2.4 | 13.8 | 1518 | SW | 235 | 46.1 | 24.0 | 2.21 | 0.25 | 0 | 21.2 | 21.5 | 2,492 | 2,339 | 0.0 | 0.0 | 0.0 | 0.0 | -11.0 | - | 263.7 | - | - | - | - | - | - | 12.5 |
| 8/23/26 | 98.1 | 1649 | 46.1 | 0649 | 0.00 | 0.00 | 0.00 | 1.9 | 12.1 | 1718 | SSW | 202 | 44.7 | 24.0 | 2.97 | 3.20 | 0 | 22.3 | 22.1 | 2,470 | 2,318 | 0.0 | 0.0 | 0.0 | 0.0 | -10.5 | - | 285.6 | - | - | - | - | - | - | 12.6 |
| 8/22/26 | 92.7 | 1602 | 44.4 | 0653 | 0.00 | 0.00 | 0.00 | 2.3 | 15.5 | 1443 | W | 266 | 43.4 | 24.0 | 2.41 | 0.00 | 0 | 19.8 | 18.5 | 2,448 | 2,296 | 0.0 | 0.0 | 1.0 | 1.0 | -7.5 | - | 237.7 | - | - | - | - | - | - | 12.6 |
| 8/21/26 | 92.1 | 1442 | 54.1 | 0058 | 0.00 | 0.00 | 0.00 | 2.6 | 13.8 | 1431 | SW | 231 | 46.3 | 24.0 | 3.80 | 0.00 | 0 | 22.2 | 23.1 | 2,428 | 2,277 | 0.0 | 0.0 | 0.0 | 0.0 | -15.0 | - | 239.2 | - | - | - | - | - | - | 12.6 |
| 8/20/26 | 96.3 | 1419 | 51.2 | 0629 | 0.00 | 0.00 | 0.00 | 2.5 | 14.4 | 1432 | SSW | 212 | 49.7 | 24.0 | 2.94 | 2.22 | 0 | 23.8 | 23.7 | 2,406 | 2,254 | 0.0 | 0.0 | 0.0 | 0.0 | -13.5 | - | 292.7 | - | - | - | - | - | - | 12.5 |
| 8/19/26 | 99.1 | 1435 | 53.8 | 0644 | 0.00 | 0.00 | 0.00 | 2.3 | 14.9 | 1539 | SSW | 207 | 49.4 | 24.0 | 2.16 | 5.02 | 0 | 25.9 | 26.5 | 2,382 | 2,230 | 0.0 | 0.0 | 0.0 | 0.0 | -16.0 | - | 320.3 | - | - | - | - | - | - | 12.5 |
| 8/18/26 | 98.9 | 1506 | 53.8 | 0622 | 0.00 | 0.00 | 0.00 | 1.9 | 16.6 | 1550 | NW | 322 | 49.8 | 24.0 | 2.14 | 4.25 | 0 | 25.2 | 26.4 | 2,357 | 2,204 | 0.0 | 0.0 | 0.0 | 0.0 | -16.5 | - | 311.8 | - | - | - | - | - | - | 12.5 |
| 8/17/26 | 94.6 | 1537 | 56.8 | 0416 | 0.00 | 0.00 | 0.00 | 2.0 | 20.5 | 1350 | W | 266 | 48.0 | 24.0 | 2.63 | 0.00 | 10 | 24.0 | 25.7 | 2,331 | 2,177 | 0.0 | 0.0 | 0.0 | 0.0 | -17.0 | - | 262.9 | - | - | - | - | - | - | 12.6 |
| 8/16/26 | 92.8 | 1517 | 47.7 | 0630 | 0.00 | 0.00 | 0.00 | 2.3 | 13.3 | 1658 | SSW | 199 | 49.5 | 24.0 | 3.09 | 0.00 | 20 | 21.0 | 20.2 | 2,307 | 2,152 | 0.0 | 0.0 | 0.0 | 0.0 | -13.0 | - | 240.8 | - | - | - | - | - | - | 12.6 |
| 8/15/26 | 86.4 | 1336 | 47.5 | 0628 | 0.00 | 0.00 | 0.00 | 2.1 | 13.8 | 1349 | WSW | 248 | 52.2 | 24.0 | 4.15 | 0.00 | 30 | 17.7 | 17.0 | 2,286 | 2,131 | 0.0 | 0.0 | 0.0 | 0.0 | -10.0 | - | 181.3 | - | - | - | - | - | - | 12.6 |
| 8/14/26 | 83.6 | 1532 | 49.6 | 0639 | 0.00 | 0.00 | 0.00 | 2.6 | 13.3 | 1222 | E | 100 | 51.9 | 24.0 | 10.27 | 0.00 | 40 | 16.7 | 16.6 | 2,269 | 2,114 | 0.0 | 0.0 | 0.0 | 0.0 | -11.5 | - | 146.8 | - | - | - | - | - | - | 12.6 |
| 8/13/26 | 84.5 | 1210 | 52.9 | 0631 | 0.00 | 0.00 | 0.00 | 3.5 | 16.6 | 1434 | SW | 233 | 53.3 | 24.0 | 11.01 | 0.00 | 20 | 18.7 | 18.7 | 2,252 | 2,098 | 0.0 | 0.0 | 0.0 | 0.0 | -14.0 | - | 157.8 | - | - | - | - | - | - | 12.5 |
| 8/12/26 | 93.4 | 1522 | 51.0 | 0636 | 0.00 | 0.00 | 0.00 | 2.5 | 14.4 | 1536 | SSW | 200 | 53.4 | 24.0 | 2.75 | 0.00 | 0 | 23.1 | 22.2 | 2,233 | 2,079 | 0.0 | 0.0 | 0.0 | 0.0 | -15.0 | - | 268.0 | - | - | - | - | - | - | 12.6 |
| 8/11/26 | 95.9 | 1327 | 52.1 | 0618 | 0.00 | 0.00 | 0.00 | 2.5 | 16.6 | 1511 | S | 175 | 52.2 | 24.0 | 2.62 | 0.58 | 0 | 24.6 | 24.0 | 2,210 | 2,057 | 0.0 | 0.0 | 0.0 | 0.0 | -15.5 | - | 294.6 | - | - | - | - | - | - | 12.5 |
| 8/10/26 | 100.4 | 1325 | 50.6 | 0632 | 0.00 | 0.00 | 0.00 | 2.8 | 14.4 | 1525 | SSE | 154 | 53.1 | 24.0 | 2.94 | 3.38 | 0 | 26.0 | 25.5 | 2,186 | 2,033 | 0.0 | 0.0 | 0.0 | 0.0 | -14.5 | - | 342.7 | - | - | - | - | - | - | 12.6 |
| 8/9/26 | 106.2 | 1457 | 51.5 | 0615 | 0.00 | 0.00 | 0.00 | 2.4 | 14.4 | 1516 | SW | 236 | 44.5 | 24.0 | 1.74 | 7.10 | 0 | 28.4 | 28.9 | 2,160 | 2,007 | 0.0 | 0.0 | 0.0 | 0.0 | -14.0 | - | 393.6 | - | - | - | - | - | - | 12.6 |
| 8/8/26 | 107.4 | 1516 | 54.7 | 0626 | 0.00 | 0.00 | 0.00 | 2.4 | 14.4 | 1709 | SW | 214 | 46.9 | 24.0 | 2.27 | 7.71 | 0 | 30.9 | 31.1 | 2,131 | 1,979 | 0.0 | 0.0 | 0.0 | 0.0 | -18.0 | - | 424.8 | - | - | - | - | - | - | 12.6 |
| 8/7/26 | 103.8 | 1704 | 53.0 | 0615 | 0.00 | 0.00 | 0.00 | 2.1 | 12.7 | 1539 | S | 184 | 42.7 | 24.0 | 2.60 | 7.04 | 0 | 28.2 | 28.4 | 2,100 | 1,947 | 0.0 | 0.0 | 0.0 | 0.0 | -16.5 | - | 377.0 | - | - | - | - | - | - | 12.7 |
| 8/6/26 | 102.4 | 1503 | 52.5 | 0609 | 0.00 | 0.00 | 0.00 | 2.4 | 15.5 | 1632 | S | 172 | 51.3 | 24.0 | 2.29 | 5.65 | 0 | 26.6 | 27.4 | 2,072 | 1,919 | 0.0 | 0.0 | 0.0 | 0.0 | -16.0 | - | 341.6 | - | - | - | - | - | - | 12.6 |
| Max | 107.4 | - | 56.8 | - | 0.02 | 0.05 | 0.05 | 3.5 | 20.5 | - | - | 53.4 | 24.0 | 11.01 | 7.71 | - | 30.9 | 31.1 | - | - | 0.0 | 0.0 | 6.6 | 6.6 | 0.5 | 0 | 424.8 | 0.01 | - | 0.02 | - | 0.02 | - | 12.7 |
| Avg | - | - | - | - | - | - | - | 2.4 | - | - | - | 47.6 | - | 3.80 | 1.66 | - | 20.7 | 20.4 | - | - | 0.0 | 0.0 | 0.7 | 0.7 | -11.5 | 0 | - | - | - | - | - | - | - | - |
| Min | 70.8 | - | 39.0 | - | 0.00 | 0.00 | 0.00 | 1.8 | 12.1 | - | - | 37.5 | 24.0 | 0.27 | 0.00 | - | 9.8 | 8.2 | - | - | 0.0 | 0.0 | 0.0 | 0.0 | -18.0 | 0 | 14.8 | 0.01 | - | 0.01 | - | 0.01 | - | 12.5 |
| Total | - | - | - | - | - | - | - | - | - | - | - | - | - | 113.99 | 49.72 | - | 619.9 | 611.5 | - | - | 0.0 | 0.0 | 20.5 | 20.5 | -346.0 | - | - | - | - | - | - | - | - | - |